Year,Month,Day,Hour,Minute,Value (Times are PST for windgust in km/hr)
2011,07,07,00,00,6.40
2011,07,07,00,01,6.40
2011,07,07,00,02,6.40
2011,07,07,00,03,4.80
2011,07,07,00,04,4.80
2011,07,07,00,05,3.20
2011,07,07,00,06,3.20
2011,07,07,00,07,4.80
2011,07,07,00,08,3.20
2011,07,07,00,10,1.60
2011,07,07,00,16,1.60
2011,07,07,00,17,4.80
2011,07,07,00,18,4.80
2011,07,07,00,19,4.80
2011,07,07,00,20,3.20
2011,07,07,00,21,1.60
2011,07,07,00,23,1.60
2011,07,07,00,29,1.60
2011,07,07,00,30,3.20
2011,07,07,00,31,1.60
2011,07,07,00,32,1.60
2011,07,07,00,33,3.20
2011,07,07,00,34,3.20
2011,07,07,00,35,6.40
2011,07,07,00,36,4.80
2011,07,07,00,37,3.20
2011,07,07,00,38,1.60
2011,07,07,00,39,1.60
2011,07,07,00,40,3.20
2011,07,07,00,41,3.20
2011,07,07,00,42,4.80
2011,07,07,00,43,4.80
2011,07,07,00,44,3.20
2011,07,07,00,45,4.80
2011,07,07,00,46,4.80
2011,07,07,00,47,6.40
2011,07,07,00,48,6.40
2011,07,07,00,49,6.40
2011,07,07,00,50,6.40
2011,07,07,00,51,8.10
2011,07,07,00,52,8.10
2011,07,07,00,53,8.10
2011,07,07,00,54,11.30
2011,07,07,00,55,11.30
2011,07,07,00,56,9.60
2011,07,07,00,57,9.60
2011,07,07,00,58,9.60
2011,07,07,00,59,8.10
2011,07,07,01,00,8.10
2011,07,07,01,01,9.60
2011,07,07,01,02,9.60
2011,07,07,01,03,14.50
2011,07,07,01,04,4.80
2011,07,07,01,05,11.30
2011,07,07,01,06,9.60
2011,07,07,01,07,11.30
2011,07,07,01,08,17.70
2011,07,07,01,09,12.90
2011,07,07,01,10,9.60
2011,07,07,01,11,11.30
2011,07,07,01,12,11.30
2011,07,07,01,13,8.10
2011,07,07,01,14,9.60
2011,07,07,01,15,9.60
2011,07,07,01,16,12.90
2011,07,07,01,17,14.50
2011,07,07,01,18,11.30
2011,07,07,01,19,8.10
2011,07,07,01,20,9.60
2011,07,07,01,21,9.60
2011,07,07,01,22,8.10
2011,07,07,01,23,8.10
2011,07,07,01,24,8.10
2011,07,07,01,25,8.10
2011,07,07,01,26,9.60
2011,07,07,01,27,9.60
2011,07,07,01,28,6.40
2011,07,07,01,29,8.10
2011,07,07,01,30,4.80
2011,07,07,01,31,4.80
2011,07,07,01,32,11.30
2011,07,07,01,33,9.60
2011,07,07,01,34,11.30
2011,07,07,01,35,8.10
2011,07,07,01,36,6.40
2011,07,07,01,37,14.50
2011,07,07,01,38,11.30
2011,07,07,01,39,11.30
2011,07,07,01,40,12.90
2011,07,07,01,41,11.30
2011,07,07,01,42,9.60
2011,07,07,01,43,9.60
2011,07,07,01,44,8.10
2011,07,07,01,45,17.70
2011,07,07,01,46,9.60
2011,07,07,01,47,12.90
2011,07,07,01,48,8.10
2011,07,07,01,49,11.30
2011,07,07,01,50,8.10
2011,07,07,01,51,14.50
2011,07,07,01,52,19.30
2011,07,07,01,53,11.30
2011,07,07,01,54,9.60
2011,07,07,01,55,6.40
2011,07,07,01,56,11.30
2011,07,07,01,57,17.70
2011,07,07,01,58,11.30
2011,07,07,01,59,9.60
2011,07,07,02,00,17.70
2011,07,07,02,01,8.10
2011,07,07,02,02,11.30
2011,07,07,02,03,6.40
2011,07,07,02,04,8.10
2011,07,07,02,05,14.50
2011,07,07,02,06,11.30
2011,07,07,02,07,11.30
2011,07,07,02,08,11.30
2011,07,07,02,09,9.60
2011,07,07,02,10,8.10
2011,07,07,02,11,9.60
2011,07,07,02,12,9.60
2011,07,07,02,13,8.10
2011,07,07,02,14,9.60
2011,07,07,02,15,6.40
2011,07,07,02,16,8.10
2011,07,07,02,17,11.30
2011,07,07,02,18,4.80
2011,07,07,02,19,4.80
2011,07,07,02,20,6.40
2011,07,07,02,21,8.10
2011,07,07,02,22,6.40
2011,07,07,02,23,4.80
2011,07,07,02,24,6.40
2011,07,07,02,25,9.60
2011,07,07,02,26,9.60
2011,07,07,02,27,9.60
2011,07,07,02,28,9.60
2011,07,07,02,29,17.70
2011,07,07,02,30,11.30
2011,07,07,02,31,14.50
2011,07,07,02,32,20.90
2011,07,07,02,33,11.30
2011,07,07,02,34,8.10
2011,07,07,02,35,17.70
2011,07,07,02,36,16.10
2011,07,07,02,37,16.10
2011,07,07,02,38,17.70
2011,07,07,02,39,14.50
2011,07,07,02,40,14.50
2011,07,07,02,41,17.70
2011,07,07,02,42,17.70
2011,07,07,02,43,11.30
2011,07,07,02,44,16.10
2011,07,07,02,45,16.10
2011,07,07,02,46,16.10
2011,07,07,02,47,17.70
2011,07,07,02,48,14.50
2011,07,07,02,49,19.30
2011,07,07,02,50,17.70
2011,07,07,02,51,9.60
2011,07,07,02,52,11.30
2011,07,07,02,53,16.10
2011,07,07,02,54,12.90
2011,07,07,02,55,14.50
2011,07,07,02,56,14.50
2011,07,07,02,57,8.10
2011,07,07,02,58,9.60
2011,07,07,02,59,14.50
2011,07,07,03,00,14.50
2011,07,07,03,01,11.30
2011,07,07,03,02,12.90
2011,07,07,03,03,17.70
2011,07,07,03,04,9.60
2011,07,07,03,05,11.30
2011,07,07,03,06,16.10
2011,07,07,03,07,9.60
2011,07,07,03,08,16.10
2011,07,07,03,09,14.50
2011,07,07,03,10,17.70
2011,07,07,03,11,9.60
2011,07,07,03,12,9.60
2011,07,07,03,13,14.50
2011,07,07,03,14,17.70
2011,07,07,03,15,9.60
2011,07,07,03,16,12.90
2011,07,07,03,17,16.10
2011,07,07,03,18,17.70
2011,07,07,03,19,9.60
2011,07,07,03,20,16.10
2011,07,07,03,21,19.30
2011,07,07,03,22,17.70
2011,07,07,03,23,11.30
2011,07,07,03,24,16.10
2011,07,07,03,25,11.30
2011,07,07,03,26,14.50
2011,07,07,03,27,14.50
2011,07,07,03,28,11.30
2011,07,07,03,29,11.30
2011,07,07,03,30,14.50
2011,07,07,03,31,14.50
2011,07,07,03,32,8.10
2011,07,07,03,33,25.70
2011,07,07,03,34,16.10
2011,07,07,03,35,16.10
2011,07,07,03,36,19.30
2011,07,07,03,37,17.70
2011,07,07,03,38,19.30
2011,07,07,03,39,20.90
2011,07,07,03,40,20.90
2011,07,07,03,41,17.70
2011,07,07,03,42,22.50
2011,07,07,03,43,24.20
2011,07,07,03,44,17.70
2011,07,07,03,45,22.50
2011,07,07,03,46,20.90
2011,07,07,03,47,17.70
2011,07,07,03,48,16.10
2011,07,07,03,49,20.90
2011,07,07,03,50,19.30
2011,07,07,03,51,14.50
2011,07,07,03,52,17.70
2011,07,07,03,53,19.30
2011,07,07,03,54,19.30
2011,07,07,03,55,20.90
2011,07,07,03,56,19.30
2011,07,07,03,57,22.50
2011,07,07,03,58,16.10
2011,07,07,03,59,19.30
2011,07,07,04,00,19.30
2011,07,07,04,01,19.30
2011,07,07,04,02,14.50
2011,07,07,04,03,22.50
2011,07,07,04,04,22.50
2011,07,07,04,05,20.90
2011,07,07,04,06,19.30
2011,07,07,04,07,12.90
2011,07,07,04,08,20.90
2011,07,07,04,09,22.50
2011,07,07,04,10,24.20
2011,07,07,04,11,12.90
2011,07,07,04,12,24.20
2011,07,07,04,13,22.50
2011,07,07,04,14,17.70
2011,07,07,04,15,20.90
2011,07,07,04,16,22.50
2011,07,07,04,17,19.30
2011,07,07,04,18,20.90
2011,07,07,04,19,19.30
2011,07,07,04,20,24.20
2011,07,07,04,21,24.20
2011,07,07,04,22,20.90
2011,07,07,04,23,16.10
2011,07,07,04,24,19.30
2011,07,07,04,25,16.10
2011,07,07,04,26,22.50
2011,07,07,04,27,19.30
2011,07,07,04,28,20.90
2011,07,07,04,29,20.90
2011,07,07,04,30,20.90
2011,07,07,04,31,20.90
2011,07,07,04,32,14.50
2011,07,07,04,33,14.50
2011,07,07,04,34,20.90
2011,07,07,04,35,19.30
2011,07,07,04,36,20.90
2011,07,07,04,37,16.10
2011,07,07,04,38,19.30
2011,07,07,04,39,19.30
2011,07,07,04,40,20.90
2011,07,07,04,41,17.70
2011,07,07,04,42,16.10
2011,07,07,04,43,14.50
2011,07,07,04,44,17.70
2011,07,07,04,45,16.10
2011,07,07,04,46,25.70
2011,07,07,04,47,17.70
2011,07,07,04,48,22.50
2011,07,07,04,49,24.20
2011,07,07,04,50,19.30
2011,07,07,04,51,24.20
2011,07,07,04,52,17.70
2011,07,07,04,53,25.70
2011,07,07,04,54,16.10
2011,07,07,04,55,17.70
2011,07,07,04,56,22.50
2011,07,07,04,57,20.90
2011,07,07,04,58,20.90
2011,07,07,04,59,17.70
2011,07,07,05,00,19.30
2011,07,07,05,01,20.90
2011,07,07,05,02,24.20
2011,07,07,05,03,35.40
2011,07,07,05,04,24.20
2011,07,07,05,05,19.30
2011,07,07,05,06,25.70
2011,07,07,05,07,19.30
2011,07,07,05,08,22.50
2011,07,07,05,09,16.10
2011,07,07,05,10,20.90
2011,07,07,05,11,17.70
2011,07,07,05,12,14.50
2011,07,07,05,13,19.30
2011,07,07,05,14,19.30
2011,07,07,05,15,9.60
2011,07,07,05,16,19.30
2011,07,07,05,17,12.90
2011,07,07,05,18,16.10
2011,07,07,05,19,22.50
2011,07,07,05,20,16.10
2011,07,07,05,21,16.10
2011,07,07,05,22,19.30
2011,07,07,05,23,24.20
2011,07,07,05,24,17.70
2011,07,07,05,25,20.90
2011,07,07,05,26,19.30
2011,07,07,05,27,22.50
2011,07,07,05,28,17.70
2011,07,07,05,29,16.10
2011,07,07,05,30,12.90
2011,07,07,05,31,17.70
2011,07,07,05,32,19.30
2011,07,07,05,33,17.70
2011,07,07,05,34,19.30
2011,07,07,05,35,19.30
2011,07,07,05,36,16.10
2011,07,07,05,37,9.60
2011,07,07,05,38,17.70
2011,07,07,05,39,12.90
2011,07,07,05,40,17.70
2011,07,07,05,41,14.50
2011,07,07,05,42,14.50
2011,07,07,05,43,16.10
2011,07,07,05,44,9.60
2011,07,07,05,45,14.50
2011,07,07,05,46,19.30
2011,07,07,05,47,17.70
2011,07,07,05,48,11.30
2011,07,07,05,49,14.50
2011,07,07,05,50,11.30
2011,07,07,05,51,8.10
2011,07,07,05,52,14.50
2011,07,07,05,53,9.60
2011,07,07,05,54,8.10
2011,07,07,05,55,11.30
2011,07,07,05,56,11.30
2011,07,07,05,57,17.70
2011,07,07,05,58,11.30
2011,07,07,05,59,14.50
2011,07,07,06,00,11.30
2011,07,07,06,01,16.10
2011,07,07,06,02,19.30
2011,07,07,06,03,19.30
2011,07,07,06,04,14.50
2011,07,07,06,05,20.90
2011,07,07,06,06,17.70
2011,07,07,06,07,20.90
2011,07,07,06,08,20.90
2011,07,07,06,09,17.70
2011,07,07,06,10,14.50
2011,07,07,06,11,19.30
2011,07,07,06,12,14.50
2011,07,07,06,13,22.50
2011,07,07,06,14,20.90
2011,07,07,06,15,22.50
2011,07,07,06,16,16.10
2011,07,07,06,17,24.20
2011,07,07,06,18,24.20
2011,07,07,06,19,12.90
2011,07,07,06,20,14.50
2011,07,07,06,21,16.10
2011,07,07,06,22,17.70
2011,07,07,06,23,17.70
2011,07,07,06,24,14.50
2011,07,07,06,25,22.50
2011,07,07,06,26,16.10
2011,07,07,06,27,17.70
2011,07,07,06,28,17.70
2011,07,07,06,29,14.50
2011,07,07,06,30,17.70
2011,07,07,06,31,20.90
2011,07,07,06,32,17.70
2011,07,07,06,33,22.50
2011,07,07,06,34,14.50
2011,07,07,06,35,17.70
2011,07,07,06,36,12.90
2011,07,07,06,37,17.70
2011,07,07,06,38,11.30
2011,07,07,06,39,16.10
2011,07,07,06,40,19.30
2011,07,07,06,41,19.30
2011,07,07,06,42,17.70
2011,07,07,06,43,16.10
2011,07,07,06,44,24.20
2011,07,07,06,45,16.10
2011,07,07,06,46,17.70
2011,07,07,06,47,8.10
2011,07,07,06,48,24.20
2011,07,07,06,49,11.30
2011,07,07,06,50,19.30
2011,07,07,06,51,24.20
2011,07,07,06,52,19.30
2011,07,07,06,53,16.10
2011,07,07,06,54,14.50
2011,07,07,06,55,17.70
2011,07,07,06,56,14.50
2011,07,07,06,57,11.30
2011,07,07,06,58,19.30
2011,07,07,06,59,19.30
2011,07,07,07,00,19.30
2011,07,07,07,01,22.50
2011,07,07,07,02,17.70
2011,07,07,07,03,19.30
2011,07,07,07,04,16.10
2011,07,07,07,05,24.20
2011,07,07,07,06,20.90
2011,07,07,07,07,20.90
2011,07,07,07,08,17.70
2011,07,07,07,09,12.90
2011,07,07,07,10,14.50
2011,07,07,07,11,16.10
2011,07,07,07,12,22.50
2011,07,07,07,13,22.50
2011,07,07,07,14,20.90
2011,07,07,07,15,24.20
2011,07,07,07,16,25.70
2011,07,07,07,17,25.70
2011,07,07,07,18,20.90
2011,07,07,07,19,19.30
2011,07,07,07,20,19.30
2011,07,07,07,21,17.70
2011,07,07,07,22,19.30
2011,07,07,07,23,24.20
2011,07,07,07,24,25.70
2011,07,07,07,25,19.30
2011,07,07,07,26,22.50
2011,07,07,07,27,19.30
2011,07,07,07,28,25.70
2011,07,07,07,29,17.70
2011,07,07,07,30,20.90
2011,07,07,07,31,16.10
2011,07,07,07,32,19.30
2011,07,07,07,33,24.20
2011,07,07,07,34,33.80
2011,07,07,07,35,17.70
2011,07,07,07,36,19.30
2011,07,07,07,37,20.90
2011,07,07,07,38,29.00
2011,07,07,07,39,20.90
2011,07,07,07,40,19.30
2011,07,07,07,41,12.90
2011,07,07,07,42,19.30
2011,07,07,07,43,19.30
2011,07,07,07,44,20.90
2011,07,07,07,45,20.90
2011,07,07,07,46,19.30
2011,07,07,07,47,22.50
2011,07,07,07,48,20.90
2011,07,07,07,49,17.70
2011,07,07,07,50,14.50
2011,07,07,07,51,14.50
2011,07,07,07,52,17.70
2011,07,07,07,53,19.30
2011,07,07,07,54,16.10
2011,07,07,07,55,16.10
2011,07,07,07,56,19.30
2011,07,07,07,57,19.30
2011,07,07,07,58,22.50
2011,07,07,07,59,20.90
2011,07,07,08,00,17.70
2011,07,07,08,01,20.90
2011,07,07,08,02,22.50
2011,07,07,08,03,19.30
2011,07,07,08,04,24.20
2011,07,07,08,05,19.30
2011,07,07,08,06,20.90
2011,07,07,08,07,19.30
2011,07,07,08,08,17.70
2011,07,07,08,09,11.30
2011,07,07,08,10,16.10
2011,07,07,08,11,14.50
2011,07,07,08,12,19.30
2011,07,07,08,13,19.30
2011,07,07,08,14,19.30
2011,07,07,08,15,22.50
2011,07,07,08,16,25.70
2011,07,07,08,17,16.10
2011,07,07,08,18,19.30
2011,07,07,08,19,24.20
2011,07,07,08,20,25.70
2011,07,07,08,21,32.20
2011,07,07,08,22,27.40
2011,07,07,08,23,27.40
2011,07,07,08,24,33.80
2011,07,07,08,25,25.70
2011,07,07,08,26,25.70
2011,07,07,08,27,14.50
2011,07,07,08,28,30.60
2011,07,07,08,29,30.60
2011,07,07,08,30,25.70
2011,07,07,08,31,19.30
2011,07,07,08,32,24.20
2011,07,07,08,33,24.20
2011,07,07,08,34,20.90
2011,07,07,08,35,19.30
2011,07,07,08,36,20.90
2011,07,07,08,37,29.00
2011,07,07,08,38,25.70
2011,07,07,08,39,27.40
2011,07,07,08,40,24.20
2011,07,07,08,41,25.70
2011,07,07,08,42,19.30
2011,07,07,08,43,25.70
2011,07,07,08,44,24.20
2011,07,07,08,45,25.70
2011,07,07,08,46,33.80
2011,07,07,08,47,19.30
2011,07,07,08,48,20.90
2011,07,07,08,49,19.30
2011,07,07,08,50,24.20
2011,07,07,08,51,29.00
2011,07,07,08,52,25.70
2011,07,07,08,53,16.10
2011,07,07,08,54,19.30
2011,07,07,08,55,22.50
2011,07,07,08,56,16.10
2011,07,07,08,57,17.70
2011,07,07,08,58,17.70
2011,07,07,08,59,27.40
2011,07,07,09,00,20.90
2011,07,07,09,01,12.90
2011,07,07,09,02,20.90
2011,07,07,09,03,17.70
2011,07,07,09,04,22.50
2011,07,07,09,05,16.10
2011,07,07,09,06,27.40
2011,07,07,09,07,24.20
2011,07,07,09,08,19.30
2011,07,07,09,09,19.30
2011,07,07,09,10,24.20
2011,07,07,09,11,25.70
2011,07,07,09,12,24.20
2011,07,07,09,13,17.70
2011,07,07,09,14,19.30
2011,07,07,09,15,25.70
2011,07,07,09,16,29.00
2011,07,07,09,17,17.70
2011,07,07,09,18,24.20
2011,07,07,09,19,20.90
2011,07,07,09,20,24.20
2011,07,07,09,21,22.50
2011,07,07,09,22,20.90
2011,07,07,09,23,22.50
2011,07,07,09,24,22.50
2011,07,07,09,25,20.90
2011,07,07,09,26,25.70
2011,07,07,09,27,22.50
2011,07,07,09,28,27.40
2011,07,07,09,29,22.50
2011,07,07,09,30,19.30
2011,07,07,09,31,16.10
2011,07,07,09,32,16.10
2011,07,07,09,33,20.90
2011,07,07,09,34,17.70
2011,07,07,09,35,17.70
2011,07,07,09,36,14.50
2011,07,07,09,37,17.70
2011,07,07,09,38,20.90
2011,07,07,09,39,12.90
2011,07,07,09,40,19.30
2011,07,07,09,41,17.70
2011,07,07,09,42,19.30
2011,07,07,09,43,17.70
2011,07,07,09,44,27.40
2011,07,07,09,45,30.60
2011,07,07,09,46,17.70
2011,07,07,09,47,19.30
2011,07,07,09,48,24.20
2011,07,07,09,49,25.70
2011,07,07,09,50,17.70
2011,07,07,09,51,27.40
2011,07,07,09,52,30.60
2011,07,07,09,53,29.00
2011,07,07,09,54,14.50
2011,07,07,09,55,19.30
2011,07,07,09,56,22.50
2011,07,07,09,57,19.30
2011,07,07,09,58,17.70
2011,07,07,09,59,17.70
2011,07,07,10,00,16.10
2011,07,07,10,01,24.20
2011,07,07,10,02,22.50
2011,07,07,10,03,19.30
2011,07,07,10,04,17.70
2011,07,07,10,05,20.90
2011,07,07,10,06,16.10
2011,07,07,10,07,24.20
2011,07,07,10,08,22.50
2011,07,07,10,09,16.10
2011,07,07,10,10,30.60
2011,07,07,10,11,29.00
2011,07,07,10,12,22.50
2011,07,07,10,13,20.90
2011,07,07,10,14,37.00
2011,07,07,10,15,25.70
2011,07,07,10,16,38.60
2011,07,07,10,17,37.00
2011,07,07,10,18,27.40
2011,07,07,10,19,27.40
2011,07,07,10,20,32.20
2011,07,07,10,21,17.70
2011,07,07,10,22,14.50
2011,07,07,10,23,20.90
2011,07,07,10,24,22.50
2011,07,07,10,25,16.10
2011,07,07,10,26,29.00
2011,07,07,10,27,24.20
2011,07,07,10,28,20.90
2011,07,07,10,29,17.70
2011,07,07,10,30,29.00
2011,07,07,10,31,25.70
2011,07,07,10,32,24.20
2011,07,07,10,33,22.50
2011,07,07,10,34,20.90
2011,07,07,10,35,27.40
2011,07,07,10,36,20.90
2011,07,07,10,37,24.20
2011,07,07,10,38,22.50
2011,07,07,10,39,20.90
2011,07,07,10,40,30.60
2011,07,07,10,41,24.20
2011,07,07,10,42,24.20
2011,07,07,10,43,19.30
2011,07,07,10,44,25.70
2011,07,07,10,45,24.20
2011,07,07,10,46,14.50
2011,07,07,10,47,20.90
2011,07,07,10,48,25.70
2011,07,07,10,49,22.50
2011,07,07,10,50,37.00
2011,07,07,10,51,25.70
2011,07,07,10,52,27.40
2011,07,07,10,53,25.70
2011,07,07,10,54,32.20
2011,07,07,10,55,27.40
2011,07,07,10,56,24.20
2011,07,07,10,57,24.20
2011,07,07,10,58,27.40
2011,07,07,10,59,30.60
2011,07,07,11,00,37.00
2011,07,07,11,01,35.40
2011,07,07,11,02,27.40
2011,07,07,11,03,22.50
2011,07,07,11,04,25.70
2011,07,07,11,05,33.80
2011,07,07,11,06,24.20
2011,07,07,11,07,32.20
2011,07,07,11,08,30.60
2011,07,07,11,09,30.60
2011,07,07,11,10,33.80
2011,07,07,11,11,25.70
2011,07,07,11,12,29.00
2011,07,07,11,13,20.90
2011,07,07,11,14,25.70
2011,07,07,11,15,22.50
2011,07,07,11,16,27.40
2011,07,07,11,17,37.00
2011,07,07,11,18,29.00
2011,07,07,11,19,30.60
2011,07,07,11,20,32.20
2011,07,07,11,21,29.00
2011,07,07,11,22,22.50
2011,07,07,11,23,33.80
2011,07,07,11,24,32.20
2011,07,07,11,25,24.20
2011,07,07,11,26,35.40
2011,07,07,11,27,29.00
2011,07,07,11,28,32.20
2011,07,07,11,29,22.50
2011,07,07,11,30,25.70
2011,07,07,11,31,17.70
2011,07,07,11,32,24.20
2011,07,07,11,33,27.40
2011,07,07,11,34,27.40
2011,07,07,11,35,24.20
2011,07,07,11,36,33.80
2011,07,07,11,37,29.00
2011,07,07,11,38,27.40
2011,07,07,11,39,27.40
2011,07,07,11,40,22.50
2011,07,07,11,41,25.70
2011,07,07,11,42,33.80
2011,07,07,11,43,27.40
2011,07,07,11,44,25.70
2011,07,07,11,45,29.00
2011,07,07,11,46,25.70
2011,07,07,11,47,19.30
2011,07,07,11,48,38.60
2011,07,07,11,49,27.40
2011,07,07,11,50,33.80
2011,07,07,11,51,35.40
2011,07,07,11,52,37.00
2011,07,07,11,53,35.40
2011,07,07,11,54,27.40
2011,07,07,11,55,35.40
2011,07,07,11,56,32.20
2011,07,07,11,57,32.20
2011,07,07,11,58,37.00
2011,07,07,11,59,25.70
2011,07,07,12,00,27.40
2011,07,07,12,01,43.50
2011,07,07,12,02,38.60
2011,07,07,12,03,33.80
2011,07,07,12,04,35.40
2011,07,07,12,05,40.20
2011,07,07,12,06,27.40
2011,07,07,12,07,38.60
2011,07,07,12,08,38.60
2011,07,07,12,09,35.40
2011,07,07,12,10,35.40
2011,07,07,12,11,38.60
2011,07,07,12,12,30.60
2011,07,07,12,13,33.80
2011,07,07,12,14,40.20
2011,07,07,12,15,40.20
2011,07,07,12,16,32.20
2011,07,07,12,17,32.20
2011,07,07,12,18,30.60
2011,07,07,12,19,33.80
2011,07,07,12,20,33.80
2011,07,07,12,21,43.50
2011,07,07,12,22,32.20
2011,07,07,12,23,37.00
2011,07,07,12,24,40.20
2011,07,07,12,25,41.80
2011,07,07,12,26,43.50
2011,07,07,12,27,29.00
2011,07,07,12,28,40.20
2011,07,07,12,29,33.80
2011,07,07,12,30,40.20
2011,07,07,12,31,33.80
2011,07,07,12,32,40.20
2011,07,07,12,33,30.60
2011,07,07,12,34,35.40
2011,07,07,12,35,33.80
2011,07,07,12,36,41.80
2011,07,07,12,37,35.40
2011,07,07,12,38,37.00
2011,07,07,12,39,38.60
2011,07,07,12,40,33.80
2011,07,07,12,41,32.20
2011,07,07,12,42,29.00
2011,07,07,12,43,30.60
2011,07,07,12,44,27.40
2011,07,07,12,45,27.40
2011,07,07,12,46,41.80
2011,07,07,12,47,29.00
2011,07,07,12,48,30.60
2011,07,07,12,49,29.00
2011,07,07,12,50,41.80
2011,07,07,12,51,37.00
2011,07,07,12,52,35.40
2011,07,07,12,53,33.80
2011,07,07,12,54,40.20
2011,07,07,12,55,30.60
2011,07,07,12,56,33.80
2011,07,07,12,57,27.40
2011,07,07,12,58,22.50
2011,07,07,12,59,35.40
2011,07,07,13,00,35.40
2011,07,07,13,01,30.60
2011,07,07,13,02,33.80
2011,07,07,13,03,27.40
2011,07,07,13,04,41.80
2011,07,07,13,05,25.70
2011,07,07,13,06,43.50
2011,07,07,13,07,38.60
2011,07,07,13,08,29.00
2011,07,07,13,09,49.90
2011,07,07,13,10,32.20
2011,07,07,13,11,38.60
2011,07,07,13,12,45.10
2011,07,07,13,13,30.60
2011,07,07,13,14,33.80
2011,07,07,13,15,35.40
2011,07,07,13,16,29.00
2011,07,07,13,17,35.40
2011,07,07,13,18,27.40
2011,07,07,13,19,37.00
2011,07,07,13,20,32.20
2011,07,07,13,21,32.20
2011,07,07,13,22,38.60
2011,07,07,13,23,33.80
2011,07,07,13,24,40.20
2011,07,07,13,25,38.60
2011,07,07,13,26,29.00
2011,07,07,13,27,37.00
2011,07,07,13,28,46.70
2011,07,07,13,29,35.40
2011,07,07,13,30,27.40
2011,07,07,13,31,37.00
2011,07,07,13,32,32.20
2011,07,07,13,33,37.00
2011,07,07,13,34,38.60
2011,07,07,13,35,29.00
2011,07,07,13,36,35.40
2011,07,07,13,37,37.00
2011,07,07,13,38,29.00
2011,07,07,13,39,41.80
2011,07,07,13,40,43.50
2011,07,07,13,41,40.20
2011,07,07,13,42,40.20
2011,07,07,13,43,37.00
2011,07,07,13,44,33.80
2011,07,07,13,45,30.60
2011,07,07,13,46,27.40
2011,07,07,13,47,29.00
2011,07,07,13,48,41.80
2011,07,07,13,49,32.20
2011,07,07,13,50,29.00
2011,07,07,13,51,30.60
2011,07,07,13,52,30.60
2011,07,07,13,53,40.20
2011,07,07,13,54,38.60
2011,07,07,13,55,27.40
2011,07,07,13,56,20.90
2011,07,07,13,57,37.00
2011,07,07,13,58,41.80
2011,07,07,13,59,27.40
2011,07,07,14,00,35.40
2011,07,07,14,01,38.60
2011,07,07,14,02,40.20
2011,07,07,14,03,32.20
2011,07,07,14,04,35.40
2011,07,07,14,05,30.60
2011,07,07,14,06,25.70
2011,07,07,14,07,27.40
2011,07,07,14,08,29.00
2011,07,07,14,09,32.20
2011,07,07,14,10,43.50
2011,07,07,14,11,40.20
2011,07,07,14,12,29.00
2011,07,07,14,13,43.50
2011,07,07,14,14,38.60
2011,07,07,14,15,46.70
2011,07,07,14,16,40.20
2011,07,07,14,17,49.90
2011,07,07,14,18,37.00
2011,07,07,14,19,37.00
2011,07,07,14,20,37.00
2011,07,07,14,21,29.00
2011,07,07,14,22,25.70
2011,07,07,14,23,25.70
2011,07,07,14,24,33.80
2011,07,07,14,25,37.00
2011,07,07,14,26,41.80
2011,07,07,14,27,38.60
2011,07,07,14,28,33.80
2011,07,07,14,29,46.70
2011,07,07,14,30,46.70
2011,07,07,14,31,37.00
2011,07,07,14,32,38.60
2011,07,07,14,33,38.60
2011,07,07,14,34,48.30
2011,07,07,14,35,45.10
2011,07,07,14,36,41.80
2011,07,07,14,37,37.00
2011,07,07,14,38,46.70
2011,07,07,14,39,35.40
2011,07,07,14,40,43.50
2011,07,07,14,41,38.60
2011,07,07,14,42,25.70
2011,07,07,14,43,51.50
2011,07,07,14,44,53.10
2011,07,07,14,45,32.20
2011,07,07,14,46,43.50
2011,07,07,14,47,51.50
2011,07,07,14,48,35.40
2011,07,07,14,49,30.60
2011,07,07,14,50,38.60
2011,07,07,14,51,38.60
2011,07,07,14,52,38.60
2011,07,07,14,53,38.60
2011,07,07,14,54,41.80
2011,07,07,14,55,32.20
2011,07,07,14,56,25.70
2011,07,07,14,57,32.20
2011,07,07,14,58,38.60
2011,07,07,14,59,38.60
2011,07,07,15,00,35.40
2011,07,07,15,01,30.60
2011,07,07,15,02,45.10
2011,07,07,15,03,37.00
2011,07,07,15,04,40.20
2011,07,07,15,05,27.40
2011,07,07,15,06,45.10
2011,07,07,15,07,35.40
2011,07,07,15,08,38.60
2011,07,07,15,09,29.00
2011,07,07,15,10,29.00
2011,07,07,15,11,40.20
2011,07,07,15,12,22.50
2011,07,07,15,13,33.80
2011,07,07,15,14,30.60
2011,07,07,15,15,17.70
2011,07,07,15,16,32.20
2011,07,07,15,17,43.50
2011,07,07,15,18,32.20
2011,07,07,15,19,27.40
2011,07,07,15,20,27.40
2011,07,07,15,21,27.40
2011,07,07,15,22,37.00
2011,07,07,15,23,29.00
2011,07,07,15,24,20.90
2011,07,07,15,25,14.50
2011,07,07,15,26,25.70
2011,07,07,15,27,30.60
2011,07,07,15,28,29.00
2011,07,07,15,29,35.40
2011,07,07,15,30,30.60
2011,07,07,15,31,30.60
2011,07,07,15,32,33.80
2011,07,07,15,33,32.20
2011,07,07,15,34,32.20
2011,07,07,15,35,45.10
2011,07,07,15,36,46.70
2011,07,07,15,37,32.20
2011,07,07,15,38,20.90
2011,07,07,15,39,30.60
2011,07,07,15,40,45.10
2011,07,07,15,41,30.60
2011,07,07,15,42,38.60
2011,07,07,15,43,17.70
2011,07,07,15,44,24.20
2011,07,07,15,45,29.00
2011,07,07,15,46,30.60
2011,07,07,15,47,22.50
2011,07,07,15,48,45.10
2011,07,07,15,49,37.00
2011,07,07,15,50,43.50
2011,07,07,15,51,33.80
2011,07,07,15,52,29.00
2011,07,07,15,53,40.20
2011,07,07,15,54,40.20
2011,07,07,15,55,40.20
2011,07,07,15,56,40.20
2011,07,07,15,57,35.40
2011,07,07,15,58,40.20
2011,07,07,15,59,38.60
2011,07,07,16,00,29.00
2011,07,07,16,01,30.60
2011,07,07,16,02,32.20
2011,07,07,16,03,33.80
2011,07,07,16,04,37.00
2011,07,07,16,05,37.00
2011,07,07,16,06,53.10
2011,07,07,16,07,40.20
2011,07,07,16,08,45.10
2011,07,07,16,09,48.30
2011,07,07,16,10,38.60
2011,07,07,16,11,29.00
2011,07,07,16,12,40.20
2011,07,07,16,13,51.50
2011,07,07,16,14,45.10
2011,07,07,16,15,49.90
2011,07,07,16,16,49.90
2011,07,07,16,17,53.10
2011,07,07,16,18,49.90
2011,07,07,16,19,41.80
2011,07,07,16,20,46.70
2011,07,07,16,21,40.20
2011,07,07,16,22,29.00
2011,07,07,16,23,43.50
2011,07,07,16,24,40.20
2011,07,07,16,25,37.00
2011,07,07,16,26,53.10
2011,07,07,16,27,41.80
2011,07,07,16,28,38.60
2011,07,07,16,29,54.70
2011,07,07,16,30,37.00
2011,07,07,16,31,41.80
2011,07,07,16,32,29.00
2011,07,07,16,33,25.70
2011,07,07,16,34,22.50
2011,07,07,16,35,33.80
2011,07,07,16,36,43.50
2011,07,07,16,37,40.20
2011,07,07,16,38,29.00
2011,07,07,16,39,43.50
2011,07,07,16,40,49.90
2011,07,07,16,41,40.20
2011,07,07,16,42,29.00
2011,07,07,16,43,49.90
2011,07,07,16,44,48.30
2011,07,07,16,45,40.20
2011,07,07,16,46,45.10
2011,07,07,16,47,45.10
2011,07,07,16,48,48.30
2011,07,07,16,49,46.70
2011,07,07,16,50,32.20
2011,07,07,16,51,38.60
2011,07,07,16,52,35.40
2011,07,07,16,53,40.20
2011,07,07,16,54,43.50
2011,07,07,16,55,43.50
2011,07,07,16,56,43.50
2011,07,07,16,57,53.10
2011,07,07,16,58,35.40
2011,07,07,16,59,46.70
2011,07,07,17,00,45.10
2011,07,07,17,01,33.80
2011,07,07,17,02,37.00
2011,07,07,17,03,33.80
2011,07,07,17,04,33.80
2011,07,07,17,05,33.80
2011,07,07,17,06,37.00
2011,07,07,17,07,30.60
2011,07,07,17,08,25.70
2011,07,07,17,09,30.60
2011,07,07,17,10,29.00
2011,07,07,17,11,22.50
2011,07,07,17,12,22.50
2011,07,07,17,13,37.00
2011,07,07,17,14,27.40
2011,07,07,17,15,43.50
2011,07,07,17,16,40.20
2011,07,07,17,17,20.90
2011,07,07,17,18,29.00
2011,07,07,17,19,40.20
2011,07,07,17,20,37.00
2011,07,07,17,21,46.70
2011,07,07,17,22,33.80
2011,07,07,17,23,33.80
2011,07,07,17,24,46.70
2011,07,07,17,25,37.00
2011,07,07,17,26,41.80
2011,07,07,17,27,40.20
2011,07,07,17,28,46.70
2011,07,07,17,29,57.90
2011,07,07,17,30,41.80
2011,07,07,17,31,41.80
2011,07,07,17,32,40.20
2011,07,07,17,33,41.80
2011,07,07,17,34,49.90
2011,07,07,17,35,43.50
2011,07,07,17,36,40.20